Location: ??
(35.3149°N, 139.6204°E)
Time: 12:31:22
(UTC+00:00)

Cosmos 1441 Rocket - Pass Details

Date: 03 August 2024
Orbit: 461 x 495 km, 81.1° (Epoch: 09 September)

Event Time Altitude Azimuth Distance (km) Brightness Sun altitude
Exits shadow 17:27:14 42° 4° (N) 721 4.2 -25.3°
Drops below altitude 10° 17:29:49 10° 7° (N) 1,710 6.5 -24.9°
Sets 17:31:57 0° 8° (N) 2,601 7.6 -24.6°
